Starlink 36580

operational
NORAD ID: 67546 Int'l Des: 2026-014 Owner: SPXS Country: US Constellation: starlink
LEOCIRCULARRETROGRADE

About Starlink 36580

Description loading...

Live Position

Loading 3D Globe...

Upcoming Passes

Altitude History

Altitude vs Time

uPlot chart will show altitude changes over time

Two-Line Element Set

1 67546U 26014Q 26066.15158954 .00315377 00000-0 20311-2 0 9994
2 67546 97.2829 310.9552 0001383 63.4276 296.7131 15.75270235 8177
Epoch: Mar 7, 2026 • Age: 14 hours

Current Status

Altitude 344.8 km
Velocity 7.70 km/s
Sub-Earth Point 14.99°N, 71.44°W
Launch Date Jan 22, 2026
Age 0.1 years
Type internet

Technical Details

Classification Payload
Mass 575.00 kg
Dry Mass 530.00 kg
Total Mass 575.00 kg
Length 0.30 m
Diameter 4.10 m
Span 29.00 m
Shape Box + pan
Manufacturer SPXS
Bus Type Starlink V2MO
Phase Status In Orbit
Owner/State SPXS/US

Large Constellations

Loading constellations...